DW1814 Weather Reports


Display with metric or nautical units.
time (UTC)temp
F
wind
direction
speed
MPH
gust
MPH
rain 1hr
in
rain 24hr
in
rain mn
in
humidity
%
barometer
mb
20260902043837 79 154 0.0 1.0 0.00 0.00 0.00 85 1013.2
20260902043333 79 142 0.0 1.0 0.00 0.00 0.00 85 1013.2
20260902042833 79 142 0.0 1.0 0.00 0.00 0.00 85 1013.3
20260902042332 79 145 0.0 1.0 0.00 0.00 0.00 85 1013.1
20260902041827 79 117 0.0 1.0 0.00 0.00 0.00 84 1013.3
20260902041327 79 142 0.0 1.0 0.00 0.00 0.00 84 1013.3
20260902040826 79 147 0.0 1.0 0.00 0.00 0.00 84 1013.3
20260902040322 80 147 0.0 1.0 0.00 0.00 0.00 84 1013.5
20260902035820 80 142 0.0 1.0 0.00 0.00 0.00 83 1013.2
20260902035317 80 50 0.0 1.0 0.00 0.00 0.00 84 1013.3
20260902034815 80 133 0.0 1.0 0.00 0.00 0.00 84 1013.3
20260902034310 80 129 0.0 1.0 0.00 0.00 0.00 84 1013.4
20260902033808 80 147 0.0 1.0 0.00 0.00 0.00 84 1013.7
20260902033304 80 139 0.0 0.0 0.00 0.00 0.00 84 1013.5
20260902032802 80 154 0.0 1.0 0.00 0.00 0.00 84 1013.4
20260902032257 80 195 0.0 1.0 0.00 0.00 0.00 85 1013.6
20260902031757 80 113 0.0 1.0 0.00 0.00 0.00 86 1013.6
20260902031253 79 135 0.0 1.0 0.00 0.00 0.00 87 1013.7
20260902030748 79 104 0.0 1.0 0.00 0.00 0.00 88 1013.6
20260902030243 79 95 0.0 0.0 0.00 0.00 0.00 88 1013.8
20260902025742 78 62 0.0 1.0 0.00 0.00 0.00 89 1013.8
20260902025238 78 52 0.0 1.0 0.00 0.00 0.00 89 1013.8
20260902024732 78 58 0.0 1.0 0.00 0.00 0.00 89 1013.7
20260902024228 78 61 0.0 1.0 0.00 0.00 0.00 90 1013.6
20260902023724 79 74 1.0 1.0 0.00 0.00 0.00 89 1013.6
20260902023219 79 57 0.0 1.0 0.00 0.00 0.00 88 1013.7
20260902022718 79 54 0.0 1.0 0.00 0.00 0.00 88 1013.5
20260902022214 79 75 0.0 1.0 0.00 0.00 0.00 87 1013.7
20260902021710 80 44 0.0 1.0 0.00 0.00 0.00 87 1013.7
20260902021209 80 89 0.0 1.0 0.00 0.00 0.00 87 1013.4
20260902020706 80 37 0.0 0.0 0.00 0.00 0.00 86 1013.5
20260902020201 80 52 0.0 1.0 0.00 0.00 0.00 85 1013.4
20260902015656 81 43 0.0 1.0 0.00 0.00 0.00 84 1013.5
20260902015153 81 50 0.0 0.0 0.00 0.00 0.00 84 1013.3
20260902014648 81 62 0.0 0.0 0.00 0.00 0.00 83 1013.4
20260902014144 82 62 0.0 0.0 0.00 0.00 0.00 83 1013.3
20260902013643 82 62 0.0 0.0 0.00 0.00 0.00 83 1013.2
20260902013139 82 62 0.0 0.0 0.00 0.00 0.00 82 1013.2
20260902012634 82 62 0.0 0.0 0.00 0.00 0.00 82 1013.2
20260902012130 83 44 0.0 0.0 0.00 0.00 0.00 81 1013.0
20260902011625 83 44 0.0 0.0 0.00 0.00 0.00 81 1012.8
20260902011126 83 50 0.0 0.0 0.00 0.00 0.00 80 1013.0
20260902010624 83 142 0.0 0.0 0.00 0.00 0.00 80 1012.8
20260902010120 84 157 0.0 0.0 0.00 0.00 0.00 80 1012.8
20260902005618 84 129 0.0 0.0 0.00 0.00 0.00 80 1012.5
20260902005114 84 150 0.0 0.0 0.00 0.00 0.00 80 1012.5
20260902004613 84 142 0.0 0.0 0.00 0.00 0.00 80 1012.6
20260902004109 84 142 0.0 0.0 0.00 0.00 0.00 79 1012.6
20260902003604 85 129 0.0 0.0 0.00 0.00 0.00 79 1012.4
20260902003100 85 157 0.0 0.0 0.00 0.00 0.00 78 1012.3
20260902002555 85 127 0.0 0.0 0.00 0.00 0.00 78 1012.3
20260902002049 85 154 0.0 0.0 0.00 0.00 0.00 77 1012.5
20260902001544 85 199 0.0 0.0 0.00 0.00 0.00 78 1012.5
20260902001039 86 154 0.0 1.0 0.00 0.00 0.00 77 1012.6
20260902000534 86 142 0.0 0.0 0.00 0.00 0.00 78 1012.3
20260902000030 86 150 0.0 0.0 0.00 0.00 0.00 77 1012.3
20260901235529 86 162 0.0 0.0 0.00 0.00 0.00 77 1012.3
20260901235025 87 162 0.0 0.0 0.00 0.00 0.00 76 1012.4
20260901234524 87 164 0.0 0.0 0.00 0.00 0.00 76 1012.6
20260901234019 87 195 0.0 0.0 0.00 0.00 0.00 76 1012.4
20260901233514 87 22 0.0 0.0 0.00 0.00 0.00 76 1012.6
20260901233010 88 230 0.0 0.0 0.00 0.00 0.00 76 1012.5
20260901232505 88 304 0.0 1.0 0.00 0.00 0.00 75 1012.7
20260901232000 88 141 0.0 0.0 0.00 0.00 0.00 74 1012.7
20260901231457 88 50 0.0 0.0 0.00 0.00 0.00 74 1012.9
20260901230953 89 75 0.0 0.0 0.00 0.00 0.00 73 1012.7
20260901230453 89 195 0.0 0.0 0.00 0.00 0.00 74 1012.7
20260901225948 89 205 0.0 1.0 0.00 0.00 0.00 72 1012.8
20260901225447 89 148 0.0 0.0 0.00 0.00 0.00 73 1012.8
20260901224942 89 297 0.0 0.0 0.00 0.00 0.00 73 1012.7
20260901224438 90 297 0.0 0.0 0.00 0.00 0.00 72 1012.9
20260901223934 90 291 0.0 0.0 0.00 0.00 0.00 71 1012.7
20260901223430 90 66 0.0 0.0 0.00 0.00 0.00 70 1013.1
20260901222925 90 218 0.0 0.0 0.00 0.00 0.00 72 1013.0
20260901222422 91 283 0.0 0.0 0.00 0.00 0.00 69 1013.0
20260901221917 91 224 0.0 0.0 0.00 0.00 0.00 69 1013.0
20260901221413 91 326 0.0 1.0 0.00 0.00 0.00 67 1013.2
20260901220908 91 195 0.0 2.0 0.00 0.00 0.00 69 1012.8
20260901220406 91 269 0.0 2.0 0.00 0.00 0.00 67 1012.9
20260901215905 91 174 0.0 1.0 0.00 0.00 0.00 70 1012.9
20260901215404 91 188 0.0 2.0 0.00 0.00 0.00 67 1012.9
20260901214903 91 242 0.0 1.0 0.00 0.00 0.00 66 1012.6
20260901214403 92 326 0.0 2.0 0.00 0.00 0.00 68 1012.7
20260901213902 93 232 0.0 1.0 0.00 0.00 0.00 70 1012.4
20260901213357 92 242 0.0 1.0 0.00 0.00 0.00 66 1012.8
20260901212856 92 336 0.0 1.0 0.00 0.00 0.00 67 1012.7
20260901212352 92 269 0.0 2.0 0.00 0.00 0.00 66 1012.6
20260901211848 91 211 0.0 1.0 0.00 0.00 0.00 68 1012.8
20260901211344 92 237 0.0 2.0 0.00 0.00 0.00 68 1012.8
20260901210839 92 218 0.0 2.0 0.00 0.00 0.00 69 1012.9
20260901210335 92 297 0.0 1.0 0.00 0.00 0.00 67 1012.9
20260901205831 92 295 2.0 4.0 0.00 0.00 0.00 67 1012.9
20260901205331 92 230 0.0 2.0 0.00 0.00 0.00 65 1013.0
20260901204826 92 314 2.0 5.0 0.00 0.00 0.00 63 1013.0
20260901204323 92 15 0.0 1.0 0.00 0.00 0.00 66 1013.2
20260901203822 92 336 0.0 4.0 0.00 0.00 0.00 64 1013.0
20260901203317 92 296 0.0 2.0 0.00 0.00 0.00 63 1013.0
20260901202812 93 294 0.0 2.0 0.00 0.00 0.00 63 1012.9
20260901202307 93 280 0.0 0.0 0.00 0.00 0.00 68 1013.0
20260901201803 92 235 0.0 2.0 0.00 0.00 0.00 64 1013.2
20260901201303 92 303 1.0 2.0 0.00 0.00 0.00 67 1013.0
20260901200801 92 211 1.0 2.0 0.00 0.00 0.00 66 1013.1
20260901200257 92 300 2.0 4.0 0.00 0.00 0.00 64 1013.1
20260901195755 92 312 2.0 2.0 0.00 0.00 0.00 64 1013.0
20260901195255 92 293 0.0 3.0 0.00 0.00 0.00 62 1013.2
20260901194750 92 284 2.0 4.0 0.00 0.00 0.00 61 1013.0
20260901194246 92 29 0.0 4.0 0.00 0.00 0.00 63 1013.4
20260901193742 92 291 0.0 2.0 0.00 0.00 0.00 62 1013.2
20260901193240 92 249 1.0 2.0 0.00 0.00 0.00 62 1013.4
20260901192735 92 293 1.0 4.0 0.00 0.00 0.00 59 1013.6
20260901192231 92 180 0.0 5.0 0.00 0.00 0.00 59 1013.5
20260901191726 92 258 0.0 2.0 0.00 0.00 0.00 61 1013.6
20260901191223 92 226 1.0 4.0 0.00 0.00 0.00 66 1013.3
20260901190718 91 338 1.0 2.0 0.00 0.00 0.00 65 1013.3
20260901190217 91 269 0.0 0.0 0.00 0.00 0.00 66 1013.5
20260901185716 91 196 0.0 2.0 0.00 0.00 0.00 64 1013.3
20260901185215 91 249 0.0 2.0 0.00 0.00 0.00 66 1013.5
20260901184711 91 205 0.0 1.0 0.00 0.00 0.00 67 1013.5
20260901184206 91 316 0.0 3.0 0.00 0.00 0.00 69 1013.4
20260901183701 91 217 0.0 2.0 0.00 0.00 0.00 67 1013.5
20260901183200 91 315 0.0 3.0 0.00 0.00 0.00 69 1013.6
20260901182657 90 315 0.0 1.0 0.00 0.00 0.00 67 1013.7
20260901182157 90 269 0.0 2.0 0.00 0.00 0.00 66 1013.5
20260901181652 90 333 0.0 2.0 0.00 0.00 0.00 70 1013.5
20260901181152 90 242 0.0 2.0 0.00 0.00 0.00 68 1013.7
20260901180652 90 297 0.0 0.0 0.00 0.00 0.00 72 1013.6
20260901180145 90 207 2.0 2.0 0.00 0.00 0.00 67 1013.7
20260901175644 90 205 0.0 2.0 0.00 0.00 0.00 73 1013.8
20260901175144 89 13 0.0 0.0 0.00 0.00 0.00 72 1014.1
20260901174640 89 322 2.0 2.0 0.00 0.00 0.00 72 1014.0
20260901174136 89 224 0.0 1.0 0.00 0.00 0.00 72 1013.9
20260901173631 89 269 0.0 2.0 0.00 0.00 0.00 74 1013.9
20260901173126 90 269 0.0 1.0 0.00 0.00 0.00 73 1013.9
20260901172622 89 202 0.0 0.0 0.00 0.00 0.00 74 1014.0
20260901172120 89 293 0.0 1.0 0.00 0.00 0.00 76 1014.1
20260901171619 89 262 0.0 2.0 0.00 0.00 0.00 77 1014.1
20260901171114 88 309 0.0 1.0 0.00 0.00 0.00 77 1014.0
20260901170613 87 224 0.0 1.0 0.00 0.00 0.00 77 1014.0
20260901170108 88 311 2.0 2.0 0.00 0.00 0.00 77 1014.3
20260901165607 88 94 2.0 3.0 0.00 0.00 0.00 75 1014.2
20260901165102 88 245 0.0 2.0 0.00 0.00 0.00 77 1014.4
20260901164558 87 347 2.0 2.0 0.00 0.00 0.00 80 1014.3
20260901164053 86 36 1.0 2.0 0.00 0.00 0.00 82 1014.4
20260901163548 85 14 0.0 1.0 0.00 0.00 0.00 82 1014.4
20260901163047 85 269 0.0 3.0 0.00 0.00 0.00 82 1014.6
20260901162542 85 302 2.0 3.0 0.00 0.00 0.00 79 1014.7
20260901162042 86 317 2.0 5.0 0.00 0.00 0.00 78 1014.4
20260901161541 86 269 0.0 1.0 0.00 0.00 0.00 78 1014.6
20260901161041 86 283 1.0 3.0 0.00 0.00 0.00 79 1014.5
20260901160538 85 332 0.0 1.0 0.00 0.00 0.00 80 1014.4
20260901160032 85 333 0.0 1.0 0.00 0.00 0.00 81 1014.5
20260901155531 84 326 0.0 2.0 0.00 0.00 0.00 84 1014.3
20260901155027 83 37 0.0 0.0 0.00 0.00 0.00 85 1014.3
20260901154526 83 324 1.0 2.0 0.00 0.00 0.00 83 1014.5
20260901154022 83 38 0.0 0.0 0.00 0.00 0.00 87 1014.3
20260901153516 82 359 0.0 1.0 0.00 0.00 0.00 86 1014.2
20260901153011 82 44 0.0 0.0 0.00 0.00 0.00 86 1014.2
20260901152510 83 28 0.0 0.0 0.00 0.00 0.00 84 1014.3
20260901152010 83 325 0.0 1.0 0.00 0.00 0.00 83 1014.3
20260901151506 83 333 0.0 0.0 0.00 0.00 0.00 84 1014.2
20260901151004 82 352 0.0 0.0 0.00 0.00 0.00 85 1014.2
20260901150503 82 75 0.0 1.0 0.00 0.00 0.00 84 1014.2
20260901150001 82 325 0.0 2.0 0.00 0.00 0.00 82 1014.4
20260901145455 82 50 0.0 0.0 0.00 0.00 0.00 83 1014.0
20260901144954 83 50 0.0 0.0 0.00 0.00 0.00 82 1014.2
20260901144449 83 50 0.0 0.0 0.00 0.00 0.00 85 1014.1
20260901143945 82 50 0.0 0.0 0.00 0.00 0.00 83 1014.0
20260901143441 82 29 0.0 0.0 0.00 0.00 0.00 84 1014.0
20260901142938 82 124 0.0 1.0 0.00 0.00 0.00 84 1013.9
20260901142437 81 299 0.0 2.0 0.00 0.00 0.00 85 1013.9
20260901141932 82 37 0.0 2.0 0.00 0.00 0.00 84 1014.2
20260901141427 82 315 0.0 2.0 0.00 0.00 0.00 83 1014.0
20260901140922 82 50 0.0 0.0 0.00 0.00 0.00 84 1014.1
20260901140420 81 309 0.0 1.0 0.00 0.00 0.00 84 1014.1
20260901135920 81 340 1.0 1.0 0.00 0.00 0.00 86 1014.1
20260901135415 80 104 0.0 1.0 0.00 0.00 0.00 88 1014.2
20260901134911 79 66 0.0 1.0 0.00 0.00 0.00 89 1014.3
20260901134407 80 42 0.0 0.0 0.00 0.00 0.00 88 1014.2
20260901133906 80 89 0.0 1.0 0.00 0.00 0.00 88 1014.1
20260901133406 79 63 0.0 1.0 0.00 0.00 0.00 88 1014.1
20260901132904 79 73 0.0 2.0 0.00 0.00 0.00 89 1014.1
20260901132359 79 52 0.0 1.0 0.00 0.00 0.00 91 1014.1
20260901131859 78 113 0.0 1.0 0.00 0.00 0.00 94 1014.3
20260901131358 77 47 0.0 1.0 0.00 0.00 0.00 96 1014.1
20260901130854 76 104 0.0 1.0 0.00 0.00 0.00 98 1014.2
20260901130354 76 49 0.0 1.0 0.00 0.00 0.00 99 1014.0
20260901125851 75 34 0.0 0.0 0.00 0.00 0.00 99 1014.4
20260901125351 75 130 0.0 1.0 0.00 0.00 0.00 99 1014.2
20260901124846 74 51 0.0 1.0 0.00 0.00 0.00 99 1014.2
20260901124341 74 55 1.0 1.0 0.00 0.00 0.00 99 1014.2
20260901123841 74 72 0.0 1.0 0.00 0.00 0.00 99 1014.0
20260901123336 74 110 0.0 1.0 0.00 0.00 0.00 99 1014.0
20260901122835 74 87 0.0 1.0 0.00 0.00 0.00 99 1014.0
20260901122335 74 62 0.0 1.0 0.00 0.00 0.00 99 1014.0
20260901121834 73 55 0.0 1.0 0.00 0.00 0.00 99 1014.1
20260901121329 73 55 0.0 1.0 0.00 0.00 0.00 99 1013.9
20260901120824 73 61 0.0 1.0 0.00 0.00 0.00 99 1013.8
20260901120319 73 75 1.0 1.0 0.00 0.00 0.00 99 1013.9
20260901115815 73 85 0.0 1.0 0.00 0.00 0.00 99 1013.8
20260901115310 72 81 1.0 2.0 0.00 0.00 0.00 99 1013.7
20260901114807 72 54 1.0 2.0 0.00 0.00 0.00 99 1013.8
20260901114302 72 87 0.0 1.0 0.00 0.00 0.00 99 1013.6
20260901113800 72 69 2.0 2.0 0.00 0.00 0.00 99 1013.6
20260901113255 72 32 2.0 2.0 0.00 0.00 0.00 99 1013.5
20260901112750 72 97 0.0 2.0 0.00 0.00 0.00 99 1013.5
20260901112249 72 86 1.0 2.0 0.00 0.00 0.00 99 1013.6
20260901111744 71 59 1.0 2.0 0.00 0.00 0.00 99 1013.5
20260901111243 71 86 1.0 1.0 0.00 0.00 0.00 99 1013.4
20260901110737 71 74 0.0 2.0 0.00 0.00 0.00 99 1013.5
20260901110232 71 75 0.0 1.0 0.00 0.00 0.00 99 1013.2
20260901105729 71 65 2.0 2.0 0.00 0.00 0.00 99 1013.3
20260901105229 71 71 1.0 2.0 0.00 0.00 0.00 99 1013.2
20260901104725 71 68 0.0 1.0 0.00 0.00 0.00 99 1013.0
20260901104226 71 62 0.0 1.0 0.00 0.00 0.00 99 1013.0
20260901103725 71 62 2.0 2.0 0.00 0.00 0.00 99 1013.1
20260901103220 72 83 1.0 2.0 0.00 0.00 0.00 99 1013.0
20260901102715 72 67 1.0 1.0 0.00 0.00 0.00 99 1013.4
20260901102214 72 89 0.0 1.0 0.00 0.00 0.00 99 1013.1
20260901101710 72 56 1.0 2.0 0.00 0.00 0.00 99 1012.9
20260901101205 72 86 1.0 2.0 0.00 0.00 0.00 99 1013.3
20260901100705 72 62 0.0 1.0 0.00 0.00 0.00 99 1013.2
20260901100159 72 57 1.0 2.0 0.00 0.00 0.00 99 1012.9
20260901095658 72 80 0.0 2.0 0.00 0.00 0.00 99 1013.0
20260901095155 71 71 0.0 2.0 0.00 0.00 0.00 99 1012.8
20260901094650 71 52 1.0 2.0 0.00 0.00 0.00 99 1013.1
20260901094145 71 63 1.0 2.0 0.00 0.00 0.00 98 1013.2
20260901093645 72 65 1.0 1.0 0.00 0.00 0.00 99 1013.0
20260901093144 72 59 0.0 2.0 0.00 0.00 0.00 98 1013.1
20260901092640 72 61 1.0 2.0 0.00 0.00 0.00 98 1013.1
20260901092136 72 50 1.0 2.0 0.00 0.00 0.00 98 1012.9
20260901091631 72 56 1.0 2.0 0.00 0.00 0.00 99 1013.0
20260901091126 72 65 1.0 2.0 0.00 0.00 0.00 98 1012.7
20260901090620 72 65 1.0 2.0 0.02 0.00 0.00 98 1013.1
20260901090117 72 53 0.0 2.0 0.02 0.00 0.00 98 1012.8
20260901085612 72 74 0.0 1.0 0.00 0.00 0.00 99 1013.0
20260901085107 72 72 0.0 1.0 0.00 0.00 0.00 98 1013.1
20260901084603 72 46 1.0 2.0 0.00 0.00 0.00 98 1013.1
20260901084100 72 70 1.0 2.0 0.00 0.00 0.00 98 1013.1
20260901083559 73 67 1.0 1.0 0.00 0.00 0.00 98 1013.0
20260901083057 73 56 1.0 2.0 0.00 0.00 0.00 98 1012.9
20260901082553 73 67 1.0 2.0 0.00 0.00 0.00 98 1012.9
20260901082048 73 67 1.0 2.0 0.00 0.00 0.00 98 1012.9
20260901081544 73 89 0.0 1.0 0.00 0.00 0.00 98 1012.9
20260901081043 73 66 1.0 1.0 0.00 0.00 0.00 98 1012.8
20260901080538 73 74 1.0 2.0 0.00 0.00 0.00 98 1012.7
20260901080037 73 74 0.0 1.0 0.00 0.00 0.00 98 1012.9
20260901075533 73 65 0.0 1.0 0.00 0.00 0.00 98 1012.6
20260901075032 73 53 0.0 2.0 0.00 0.00 0.00 98 1012.8
20260901074532 73 73 0.0 2.0 0.00 0.00 0.00 98 1012.8
20260901074027 73 87 0.0 1.0 0.00 0.00 0.00 98 1013.0
20260901073524 73 55 1.0 2.0 0.00 0.00 0.00 98 1012.8
20260901073019 73 55 1.0 1.0 0.00 0.00 0.00 98 1012.8
20260901072514 73 74 0.0 1.0 0.00 0.00 0.00 98 1012.7
20260901072009 73 45 1.0 1.0 0.00 0.00 0.00 98 1012.9
20260901071508 73 73 0.0 1.0 0.00 0.00 0.00 98 1012.7
20260901071007 73 75 1.0 2.0 0.00 0.00 0.00 98 1012.6
20260901070502 73 66 0.0 2.0 0.00 0.00 0.00 97 1012.8
20260901070001 73 66 0.0 1.0 0.00 0.00 0.00 97 1012.6
20260901065457 73 60 1.0 1.0 0.00 0.00 0.00 97 1012.7
20260901064951 73 79 1.0 1.0 0.00 0.00 0.00 98 1012.6
20260901064448 73 66 1.0 1.0 0.00 0.00 0.00 97 1012.7
20260901063945 73 62 0.0 1.0 0.00 0.00 0.00 97 1012.8
20260901063441 73 58 0.0 1.0 0.00 0.00 0.00 97 1012.7
20260901062937 73 76 1.0 1.0 0.00 0.00 0.00 97 1012.7
20260901062433 73 73 0.0 1.0 0.00 0.00 0.00 97 1012.6
20260901061928 73 89 1.0 1.0 0.00 0.00 0.00 97 1012.7
20260901061424 73 87 0.0 2.0 0.00 0.00 0.00 96 1012.6
20260901060919 73 89 0.0 1.0 0.00 0.00 0.00 96 1012.6
20260901060415 73 67 1.0 2.0 0.00 0.00 0.00 96 1012.8
20260901055913 73 49 0.0 2.0 0.00 0.00 0.00 96 1012.5
20260901055410 74 64 0.0 2.0 0.00 0.00 0.00 96 1012.7
20260901054906 74 65 0.0 1.0 0.00 0.00 0.00 96 1012.8
20260901054404 74 62 0.0 1.0 0.00 0.00 0.00 96 1012.6
20260901053859 74 57 0.0 1.0 0.00 0.00 0.00 96 1012.8
20260901053354 74 84 0.0 1.0 0.00 0.00 0.00 96 1012.7
20260901052850 74 76 0.0 1.0 0.00 0.00 0.00 96 1012.9
20260901052345 74 102 0.0 1.0 0.00 0.00 0.00 95 1012.8
20260901051844 74 89 0.0 1.0 0.00 0.00 0.00 95 1012.7
20260901051339 74 89 0.0 1.0 0.00 0.00 0.00 95 1012.8
20260901050834 74 72 0.0 1.0 0.00 0.00 0.00 95 1012.8
20260901050330 75 79 0.0 1.0 0.00 0.00 0.00 95 1012.8
20260901045830 75 86 0.0 1.0 0.00 0.35 0.35 95 1012.6
20260901045330 75 73 0.0 1.0 0.00 0.35 0.35 95 1012.9
20260901044826 75 107 0.0 1.0 0.00 0.35 0.35 95 1013.1
20260901044322 75 129 0.0 1.0 0.00 0.35 0.35 95 1012.7